Flag for Germany Weather past 2 weeks in Lehrte, Lower Saxony, Germany

Now
47 °F

Overcast.


Feels Like: 45 °F
Forecast: 36 / 52 °F
Wind: 5 mph from North

Location: Hannover

Current Time: Apr 27, 2015 at 3:19:35 PM

Latest Report: Apr 27, 2015 at 2:00 PM


Visibility: 13 mi

Pressure: 29.75 "Hg

Humidity: 83%

Dew point: 42 °F

Location of LehrteLocation

Historic Weather in Lehrte — Graph

°F

Lehrte temperature yesterday

Maximum temperature yesterday: 63 °F (at 3:00 PM)
Minimum temperature yesterday: 51 °F (at 2:00 AM)
Average temperature yesterday: 55 °F

Past Weeks' High & Low Weather Summary

 TemperatureHumidityPressure
High72 °F (Apr 15, 4:00 PM)100% (Apr 23, 6:00 AM)30.43 "Hg (Apr 23, 6:00 AM)
Low34 °F (Apr 18, 7:00 AM)33% (Apr 20, 4:00 PM)29.63 "Hg (Apr 27, 6:00 AM)
Average50 °F69%30.11 "Hg
* Reported Apr 12 2:00 PM — Apr 27 2:00 PM, Lehrte, Weather by CustomWeather, © 2015

Note: Actual official high and low records may vary slightly from our data, if they occured in-between our weather recording intervals... More about our weather records

Advertising

Lehrte weather history for previous 24 hours

 ConditionsComfort  
Time TempWeatherWind HumidityBarometerVisibility
2:00 PM
Mon, Apr 27
47 °FOvercast.5 mph83%29.75 "Hg12 mi
1:00 PM45 °FLow clouds.6 mph90%29.75 "Hg7 mi
12:00 PM45 °FLow clouds.6 mph91%29.73 "Hg7 mi
10:00 AM46 °FLight rain. Low clouds.5 mph94%29.69 "Hg6 mi
9:00 AM46 °FLight rain. Low clouds.5 mph95%29.67 "Hg6 mi
8:00 AM46 °FLight rain. Low clouds.5 mph95%29.65 "Hg3 mi
7:00 AM47 °FLight rain. Low clouds.6 mph97%29.64 "Hg3 mi
6:00 AM48 °FLight rain. Low clouds.6 mph97%29.63 "Hg6 mi
4:00 AM50 °FLight rain. Low clouds.3 mph97%29.64 "Hg2 mi
3:00 AM51 °FLight rain. Low clouds.2 mph97%29.66 "Hg2 mi
2:00 AM51 °FRain. Low clouds.2 mph94%29.67 "Hg4 mi
1:00 AM52 °FLight rain. Low clouds.2 mph95%29.68 "Hg4 mi
12:00 AM52 °FLight rain. Low clouds.2 mph95%29.70 "Hg4 mi
10:00 PM
Sun, Apr 26
53 °FOvercast.3 mph95%29.70 "Hg1 mi
9:00 PM54 °FSprinkles. Overcast.2 mph88%29.70 "Hg7 mi
8:00 PM56 °FOvercast.5 mph78%29.69 "Hg16 mi
7:00 PM57 °FOvercast.6 mph74%29.68 "Hg19 mi
6:00 PM62 °FPartly sunny.7 mph65%29.67 "Hg22 mi
4:00 PM63 °FScattered clouds.6 mph58%29.67 "Hg22 mi
3:00 PM63 °FPartly sunny.6 mph63%29.70 "Hg25 mi
Weather by CustomWeather, © 2015

See weather overviewHow to use our weather pages